Weather Roundup
Issued by NWS Chicago, IL

Home | Current Version | Previous Version | Graphics & Text | Print | Product List | Glossary On
Versions: 1 2 3 4 5 6 7 8 9 10 11 12 13 14 15 16 17 18 19 20 21 22 23 24 25 26 27 28 29 30 31 32 33 34 35 36 37 38 39 40 41 42 43 44 45 46 47 48 49 50
000
NZUS59 KLOT 270403
HRRLOT

CHICAGO AREA WEATHER ROUNDUP
NATIONAL WEATHER SERVICE CHICAGO/ROMEOVILLE IL
1100 PM CDT SUN MAR 26 2017

NOTE: "FAIR" INDICATES FEW OR NO CLOUDS BELOW 12,000 FEET WITH NO
SIGNIFICANT WEATHER AND/OR OBSTRUCTIONS TO VISIBILITY.

* THESE STATIONS ARE NOT UNDER NWS QUALITY CONTROL. THEY ALSO MAY NOT
  REPORT WEATHER SUCH AS PRECIPITATION OR FOG.

ILZ005-006-012>014-019>023-270500-
NORTHEAST ILLINOIS

CITY           SKY/WX    TMP DP  RH WIND       PRES   REMARKS
OHARE          CLOUDY    53  49  86 SW8       29.88R
MIDWAY         CLOUDY    52  50  93 SW14      29.89S
AURORA         CLOUDY    51  49  92 SW10      29.89F FOG
LANSING*       CLOUDY    51  51  97 SW6       29.90S
WAUKEGAN       CLOUDY    42  42 100 CALM      29.87R FOG
DUPAGE AIRPORT CLOUDY    50  50 100 SW9       29.88F FOG
WHEELING       CLOUDY    52  51  97 W7        29.89S
MORRIS*        CLOUDY    50  49  96 W10       29.90F FOG
$$

WIZ051-052-058>065-066-070>072-270500-
SOUTHEAST WISCONSIN

CITY           SKY/WX    TMP DP  RH WIND       PRES   REMARKS
MILWAUKEE      CLOUDY    42  40  92 CALM      29.88R FOG
KENOSHA*       FOG       47  45  93 CALM      29.88R VSB 1
RACINE*        CLOUDY    42  41  96 CALM      29.89R
$$

INZ001>003-010>013-019-020-270500-
NORTHWEST INDIANA

CITY           SKY/WX    TMP DP  RH WIND       PRES   REMARKS
GARY*          CLOUDY    54  49  83 SW6       29.90S
MICHIGAN CITY* NOT AVBL
RENSSELAER*    NOT AVBL
VALPARAISO     CLOUDY    53  51  93 W14       29.91R
$$

LMZ740>746-270500-
SOUTHERN LAKE MICHIGAN

STATION/POSITION TIME  SKY/WX   TEMP WIND        PRES    VSBY
                                AIR  DIR/SP/G
                 (UTC)          (F)  (DEG/KT/KT) (MB)    (MI)
HARRISON CRIB    0340            54  250/ 12/ 13   N/A
BURNHAM HARBOR   0400            52  230/  8/ 11   N/A
CALUMET HARBOR   0330            53  230/  8/ 12 1011.7R
BURNS HARBOR     0340            53  230/ 10/ 13 1012.9R
MICHIGAN CITY    0340            52  220/ 10/ 10   N/A
$$

ABBREVIATIONS USED IN REMARKS
   TC - TEMPERATURE IN CELSIUS
  WCI - WIND CHILL INDEX
   HX - HEAT INDEX
  VSB - VISIBILITY
$$




USA.gov is the U.S. government's official web portal to all federal, state and local government web resources and services.